Weather in Krasnoarmeysk

Russia / Saratov Oblast     51°01′24″N   45°41′42″E
В апреле 2022 года жителям России запретили посещать сайт meteo.paraplan.net по решению Генеральной прокуратуры. Аудитория сайта уменьшилась в 10 раз. Владельцы сайта не видят смысла в поддержке погодного сервера в таких условиях. Сайт будет закрыт в октябре.
temp.,
°C
wind,
m/s
gust,
m/s
humid.,
%
clouds,
%
prec.,
mm/h
press.,
hPa
HPBL,
m
3 october, mon
mon301:00+18sse71658100 0.0 1010534
04:00+16sse81762100 0.0 1009616
07:00+15se9195394 0.0 1009694
10:00+16sse112047100 0.0 10101101
13:00+18sse111644100 0.0 10101042
16:00+15s111664100 0.4 10121058
19:00+13s81592100 5.4 1014796
22:00+13sse4694100 6.4 1016252
4 october, tue
tue401:00+13sse479311 0.4 1017161
04:00+11se498165 0.5 1018287
07:00+12se479496 0.0 1019394
10:00+13sse588351 0.0 1020423
13:00+14sse61073100 0.0 1020588
16:00+11se5128599 2.5 1021535
19:00+13se51163100 0.2 1021457
22:00+10sse6118392 0.6 1022579
5 october, wed
wed501:00+10se488595 0.0 1022353
04:00+10ese2684100 0.0 1022241
07:00+9se338090 0.0 102150
10:00+13s3463100 0.0 1021260
13:00+16s4561100 0.0 1021575
16:00+16s4663100 0.0 1020581
19:00+13s4980100 0.3 1021278
22:00+12wsw348348 0.4 102160
6 october, thu
thu601:00+11wsw34775 0.0 102155
04:00+9w36700 0.0 1020100
07:00+8w487828 0.0 1020164
10:00+11wnw67654 0.0 1020721
13:00+13w675080 0.0 10201682
16:00+13w685197 0.1 10201518
19:00+11wnw59648 0.1 1021799
22:00+11w5974100 0.1 1022682
7 october, fri
fri701:00+11w6127774 0.0 1021572
04:00+10wsw7148390 0.0 1021373
07:00+10wsw7158067 0.0 1020425
10:00+13w8136643 0.0 1020638
13:00+17w810540 0.0 10201037
16:00+18wnw795442 0.0 10191332
19:00+15wnw596794 0.0 1021552
22:00+11nw49830 0.0 1023264